User: anonymous   Login
Location: Viterbo
(42.4170°N, 12.1000°E)
Time: 21:08:14
(UTC+01:00)
Language:

nSIGHT-1 - Orbit

View from above orbital plane
View from above orbital plane
View from above satellite
View from above satellite

Ground track
Ground track

The orbit data is extracted from the following two-line orbital elements,

1 42726U 98067MF  20019.96442134  .00050174  00000-0  21033-3 0  9995
2 42726  51.6306 278.8848 0001368 235.7217 124.3657 15.85048189151783
Epoch (UTC): 19 January 2020 23:08:46
Eccentricity: 0.0001368
inclination: 51.6306°
perigee height: 315 km
apogee height: 317 km
right ascension of ascending node: 278.8848°
argument of perigee: 235.7217°
revolutions per day: 15.85048189
mean anomaly at epoch: 124.3657°
orbit number at epoch: 15178

The dashed part of the orbit path shows where the satellite is in the earth's shadow,  

DLR